Weather History for Tomahawk, WI

Change the Weather History Date:

Saturday, September 21, 2013

  Actual Average (KRHI) Record (KRHI)
Temperature  
Mean Temperature 44 °F 53 °F  
Max Temperature 57 °F 64 °F 91 °F (1908)
Min Temperature 32 °F 42 °F 29 °F (1973)
Degree Days  
Heating Degree Days 21 12  
Month to date heating degree days 177  
Since 1 July heating degree days 304  
Cooling Degree Days 0 0  
Month to date cooling degree days 16  
Year to date cooling degree days 257  
Moisture  
Dew Point 40 °F    
Average Humidity 79    
Maximum Humidity 97    
Minimum Humidity 51    
Precipitation  
Precipitation 0.00 in 0.15 in 2.12 in (1970)
Month to date precipitation 2.93  
Year to date precipitation 23.81  
Snow  
Snow 0.00 in - 0.50 in (1913)
Month to date snowfall  
Since 1 July snowfall  
Since 1 September snowfall  
Snow Depth -    
Sea Level Pressure  
Sea Level Pressure 29.90 in    
Wind  
Wind Speed 5 mph (WNW)    
Max Wind Speed 14 mph    
Max Gust Speed 18 mph    
Visibility 10 miles    
Events      
T = Trace of Precipitation, MM = Missing Value Source: NWS Daily Summary

Daily Weather History Graph

Daily Weather History Graph

Search for Another Location

Airport:

Trip Planner

Search our weather history database for the weather conditions in past years. The results will help you decide how hot, cold, wet, or windy it might be!

Date:

Astronomy

Sep. 21, 2013 Rise Set
Actual Time 6:45 AM CDT 6:58 PM CDT
Civil Twilight 6:15 AM CDT 7:27 PM CDT
Nautical Twilight 5:40 AM CDT 8:02 PM CDT
Astronomical Twilight 5:05 AM CDT 8:38 PM CDT
Moon 7:59 PM CDT (9/21) 9:12 AM CDT (9/21)
Length of Visible Light 13h 11m
Length of Day
12h 12m
Waning Gibbous, 94% of the Moon is Illuminated
Sep 21
Waning Gibbous
Sep 26
Last Quarter
Oct 4
New
Oct 11
First Quarter
Oct 18
Full

Hourly Weather History & Observations

Time (CDT) Temp. Windchill Dew Point Humidity Pressure Visibility Wind Dir Wind Speed Gust Speed Precip Events Conditions
12:15 AM 44.6 °F 43.1 °F 43.0 °F 94% 29.84 in 10.0 mi West 3.5 mph - N/A   Mostly Cloudy
12:35 AM 44.6 °F 43.1 °F 42.8 °F 93% 29.84 in 10.0 mi West 3.5 mph - N/A   Mostly Cloudy
12:55 AM 43.7 °F 42.1 °F 41.9 °F 93% 29.84 in 10.0 mi West 3.5 mph - N/A   Clear
1:15 AM 43.0 °F 41.3 °F 41.7 °F 95% 29.84 in 10.0 mi West 3.5 mph - N/A   Clear
1:35 AM 42.8 °F 41.1 °F 41.4 °F 95% 29.84 in 10.0 mi West 3.5 mph - N/A   Clear
1:55 AM 42.6 °F 39.9 °F 41.2 °F 95% 29.84 in 10.0 mi West 4.6 mph - N/A   Clear
2:15 AM 41.9 °F 40.0 °F 40.6 °F 95% 29.84 in 10.0 mi West 3.5 mph - N/A   Clear
2:35 AM 41.5 °F 38.6 °F 40.3 °F 95% 29.84 in 10.0 mi West 4.6 mph - N/A   Clear
2:55 AM 41.2 °F 38.2 °F 40.1 °F 96% 29.84 in 10.0 mi West 4.6 mph - N/A   Clear
3:15 AM 41.4 °F 38.4 °F 40.3 °F 96% 29.84 in 10.0 mi West 4.6 mph - N/A   Clear
3:35 AM 41.9 °F 40.0 °F 40.8 °F 96% 29.85 in 10.0 mi West 3.5 mph - N/A   Mostly Cloudy
3:55 AM 42.8 °F 41.1 °F 41.5 °F 95% 29.85 in 10.0 mi West 3.5 mph - N/A   Overcast
4:15 AM 43.3 °F 41.7 °F 42.3 °F 96% 29.85 in 10.0 mi West 3.5 mph - N/A   Overcast
4:35 AM 44.1 °F 41.5 °F 43.0 °F 96% 29.85 in 10.0 mi West 4.6 mph - N/A   Overcast
4:55 AM 45.0 °F 41.8 °F 43.9 °F 96% 29.85 in 10.0 mi WNW 5.8 mph - N/A   Overcast
5:15 AM 45.5 °F 41.8 °F 43.9 °F 94% 29.86 in 10.0 mi West 6.9 mph - N/A   Overcast
5:35 AM 45.7 °F 42.0 °F 44.1 °F 94% 29.86 in 10.0 mi West 6.9 mph - N/A   Overcast
5:55 AM 45.7 °F 42.7 °F 43.9 °F 93% 29.86 in 10.0 mi WNW 5.8 mph - N/A   Overcast
6:15 AM 45.9 °F 42.9 °F 43.7 °F 92% 29.87 in 10.0 mi WNW 5.8 mph - N/A   Overcast
6:35 AM 45.9 °F 43.6 °F 43.3 °F 91% 29.87 in 10.0 mi WNW 4.6 mph - N/A   Overcast
6:55 AM 45.5 °F 41.8 °F 43.0 °F 91% 29.88 in 10.0 mi WNW 6.9 mph - N/A   Overcast
7:15 AM 44.8 °F 42.4 °F 42.6 °F 92% 29.88 in 10.0 mi WNW 4.6 mph - N/A   Mostly Cloudy
7:35 AM 45.7 °F 43.4 °F 43.3 °F 92% 29.89 in 10.0 mi WNW 4.6 mph - N/A   Overcast
7:55 AM 46.2 °F 42.7 °F 42.4 °F 87% 29.89 in 10.0 mi NW 6.9 mph 16.1 mph N/A   Overcast
8:15 AM 46.6 °F - 42.8 °F 87% 29.89 in 10.0 mi NW 8.1 mph - N/A   Overcast
8:35 AM 46.6 °F - 43.0 °F 87% 29.90 in 7.0 mi NW 12.7 mph 17.3 mph N/A   Overcast
8:55 AM 46.8 °F - 42.1 °F 84% 29.90 in 10.0 mi NW 10.4 mph 16.1 mph N/A   Overcast
9:15 AM 48.4 °F - 42.1 °F 79% 29.90 in 10.0 mi NW 10.4 mph 17.3 mph N/A   Overcast
9:35 AM 47.5 °F - 39.7 °F 75% 29.90 in 10.0 mi NNW 10.4 mph 17.3 mph N/A   Overcast
9:55 AM 47.3 °F - 39.4 °F 74% 29.91 in 10.0 mi WNW 10.4 mph 18.4 mph N/A   Overcast
10:15 AM 47.3 °F - 38.8 °F 72% 29.91 in 10.0 mi NNW 13.8 mph 18.4 mph N/A   Overcast
10:35 AM 47.5 °F - 38.5 °F 71% 29.92 in 10.0 mi NW 5.8 mph 18.4 mph N/A   Overcast
10:55 AM 47.3 °F - 38.3 °F 71% 29.92 in 10.0 mi NW 9.2 mph 16.1 mph N/A   Overcast
11:15 AM 48.2 °F - 37.6 °F 67% 29.92 in 10.0 mi NW 10.4 mph - N/A   Overcast
11:35 AM 48.4 °F - 38.7 °F 69% 29.92 in 10.0 mi WNW 10.4 mph - N/A   Overcast
11:55 AM 49.1 °F - 38.8 °F 68% 29.92 in 10.0 mi NW 9.2 mph - N/A   Overcast
12:15 PM 50.0 °F - 38.7 °F 65% 29.92 in 10.0 mi WNW 8.1 mph - N/A   Overcast
12:35 PM 52.7 °F - 38.7 °F 59% 29.92 in 10.0 mi NW 10.4 mph 17.3 mph N/A   Mostly Cloudy
12:55 PM 51.6 °F - 38.1 °F 60% 29.92 in 10.0 mi NW 9.2 mph 16.1 mph N/A   Mostly Cloudy
1:15 PM 53.4 °F - 38.7 °F 57% 29.91 in 10.0 mi NW 9.2 mph - N/A   Mostly Cloudy
1:35 PM 54.1 °F - 38.1 °F 55% 29.91 in 10.0 mi WNW 9.2 mph - N/A   Scattered Clouds
1:55 PM 54.3 °F - 38.5 °F 55% 29.91 in 10.0 mi WNW 6.9 mph - N/A   Scattered Clouds
2:15 PM 55.0 °F - 39.2 °F 55% 29.91 in 10.0 mi West 5.8 mph - N/A   Scattered Clouds
2:35 PM 55.0 °F - 38.5 °F 54% 29.91 in 10.0 mi West 6.9 mph - N/A   Scattered Clouds
2:55 PM 55.9 °F - 39.2 °F 53% 29.91 in 10.0 mi West 6.9 mph - N/A   Clear
3:15 PM 55.6 °F - 39.2 °F 54% 29.91 in 10.0 mi WNW 11.5 mph 16.1 mph N/A   Scattered Clouds
3:35 PM 56.5 °F - 39.0 °F 52% 29.90 in 10.0 mi WNW 8.1 mph 16.1 mph N/A   Clear
3:55 PM 56.3 °F - 38.1 °F 51% 29.91 in 10.0 mi NW 10.4 mph 16.1 mph N/A   Clear
4:15 PM 56.5 °F - 39.4 °F 53% 29.90 in 10.0 mi NNW 9.2 mph - N/A   Clear
4:35 PM 56.5 °F - 39.6 °F 53% 29.90 in 10.0 mi NW 6.9 mph - N/A   Clear
4:55 PM 56.3 °F - 39.9 °F 54% 29.90 in 10.0 mi North 5.8 mph - N/A   Scattered Clouds
5:15 PM 55.6 °F - 38.8 °F 53% 29.91 in 10.0 mi NNW 6.9 mph - N/A   Clear
5:35 PM 54.9 °F - 39.0 °F 55% 29.91 in 10.0 mi NW 4.6 mph - N/A   Clear
5:55 PM 54.1 °F - 39.6 °F 58% 29.91 in 10.0 mi NNW 5.8 mph - N/A   Clear
6:15 PM 52.9 °F - 39.9 °F 61% 29.91 in 10.0 mi North 4.6 mph - N/A   Clear
6:35 PM 51.3 °F - 41.0 °F 68% 29.92 in 10.0 mi Calm Calm - N/A   Clear
6:55 PM 48.2 °F - 40.6 °F 75% 29.92 in 10.0 mi North 3.5 mph - N/A   Clear
7:15 PM 47.1 °F - 40.3 °F 77% 29.92 in 10.0 mi Calm Calm - N/A   Clear
7:35 PM 45.5 °F 44.2 °F 40.3 °F 82% 29.93 in 10.0 mi NNE 3.5 mph - N/A   Clear
7:55 PM 45.5 °F 44.2 °F 40.3 °F 82% 29.94 in 10.0 mi NNE 3.5 mph - N/A   Clear
8:15 PM 44.6 °F 43.1 °F 40.1 °F 84% 29.94 in 10.0 mi NE 3.5 mph - N/A   Clear
8:35 PM 43.2 °F - 39.4 °F 86% 29.95 in 10.0 mi Calm Calm - N/A   Clear
8:55 PM 40.8 °F - 38.3 °F 91% 29.95 in 10.0 mi Calm Calm - N/A   Clear
9:15 PM 39.7 °F - 37.8 °F 93% 29.95 in 10.0 mi Calm Calm - N/A   Clear
9:35 PM 37.4 °F - 35.6 °F 93% 29.96 in 10.0 mi Calm Calm - N/A   Clear
9:55 PM 35.6 °F - 34.0 °F 94% 29.97 in 10.0 mi Calm Calm - N/A   Clear
10:15 PM 34.9 °F - 33.4 °F 94% 29.97 in 10.0 mi Calm Calm - N/A   Clear
10:35 PM 34.3 °F - 32.9 °F 94% 29.98 in 10.0 mi Calm Calm - N/A   Clear
10:55 PM 33.6 °F - 32.2 °F 94% 29.98 in 10.0 mi Calm Calm - N/A   Clear
11:15 PM 33.3 °F - 32.0 °F 95% 29.98 in 10.0 mi Calm Calm - N/A   Clear
11:35 PM 32.4 °F - 31.6 °F 97% 29.99 in 10.0 mi Calm Calm - N/A   Clear
11:55 PM 32.0 °F - 31.1 °F 96% 30.00 in 10.0 mi Calm Calm - N/A   Clear